Regional Weather Roundup
Issued by NWS

Home | Current Version | Previous Version | Graphics & Text | Print | Product List | Glossary On
Versions: 1 2 3 4 5 6 7 8 9 10 11 12 13 14 15 16 17 18 19 20 21 22 23 24 25 26 27 28 29 30 31 32 33 34 35 36 37 38 39 40 41 42 43 44 45 46 47 48 49 50
000
ASUS43 KLSX 231207
RWRMO

WEATHER SUMMARY FOR MISSOURI
NATIONAL WEATHER SERVICE SPRINGFIELD MO
700 AM CDT TUE SEP 23 2014

NOTE: "FAIR" INDICATES FEW OR NO CLOUDS BELOW 12,000 FEET WITH NO
       SIGNIFICANT WEATHER AND/OR OBSTRUCTIONS TO VISIBILITY.
       CURRENT SKY AND/OR WEATHER CONDITIONS ARE NOT AVAILABLE FOR
       CHILLICOTHE AND FARMINGTON.

MOZ001>031-035>038-043-044-053-054-231300-
...NORTHERN AND WESTERN MISSOURI...

CITY           SKY/WX    TMP DP  RH WIND       PRES   REMARKS
KANSAS CTY INT CLOUDY    54  50  86 S7        30.22S
6HR MIN TEMP:  52; 6HR MAX TEMP:  56;

KANSAS C DTWN  CLOUDY    61  49  64 S10       30.22S
6HR MIN TEMP:  58; 6HR MAX TEMP:  63;

LEE`S SUMMIT   PTCLDY    57  49  74 SE7       30.24S
6HR MIN TEMP:  56; 6HR MAX TEMP:  60;

ST JOSEPH      CLOUDY    55  52  89 SW6       30.24R
6HR MIN TEMP:  48; 6HR MAX TEMP:  56;

CHILLICOTHE      N/A     52  49  89 CALM      30.27R
6HR MIN TEMP:  50; 6HR MAX TEMP:  55; 6HR PCP:  0.01;

KIRKSVILLE     PTCLDY    50  32  50 S6        30.29R
6HR MIN TEMP:  46; 6HR MAX TEMP:  53;


$$
MOZ066>068-077>081-088>096-101>105-231300-
...SOUTHWEST MISSOURI...

CITY           SKY/WX    TMP DP  RH WIND       PRES   REMARKS
SPRINGFIELD    CLEAR     52  47  83 S5        30.26R
6HR MIN TEMP:  52; 6HR MAX TEMP:  58;

JOPLIN         PTCLDY    54  50  86 SE6       30.23S
6HR MIN TEMP:  50; 6HR MAX TEMP:  58;


$$
MOZ032>034-039>042-045>050-055>058-069>072-231300-
...CENTRAL MISSOURI...

CITY           SKY/WX    TMP DP  RH WIND       PRES   REMARKS
COLUMBIA       CLEAR     50  47  89 SE5       30.28R
6HR MIN TEMP:  48; 6HR MAX TEMP:  56;

JEFFERSON CITY CLEAR     46  45  96 CALM      30.28R
6HR MIN TEMP:  45; 6HR MAX TEMP:  51;

ROLLA          CLEAR     51  44  77 SE9       30.27R
6HR MIN TEMP:  48; 6HR MAX TEMP:  55;

SEDALIA        CLEAR     50  46  86 S6        30.26S
6HR MIN TEMP:  49; 6HR MAX TEMP:  57;

WHITEMAN AFB   CLEAR     52  48  87 VRB3      30.24S
OSAGE BEACH    CLEAR     48  43  81 SE3       30.27R

$$
MOZ051-052-059>065-231300-
...EAST CENTRAL MISSOURI...

CITY           SKY/WX    TMP DP  RH WIND       PRES   REMARKS
ST LOUIS INTL  PTCLDY    52  48  86 E3        30.30R
6HR MIN TEMP:  52; 6HR MAX TEMP:  57;

SPIRIT OF STL  CLEAR     45  44  97 CALM      30.29R
6HR MIN TEMP:  42; 6HR MAX TEMP:  49;

ST CHARLES     CLEAR     47  46  97 E5        30.29R
6HR MIN TEMP:  46; 6HR MAX TEMP:  52;


$$
MOZ072>076-082>087-097>100-106>115-231300-
...SOUTH CENTRAL AND SOUTHEAST MISSOURI...

CITY           SKY/WX    TMP DP  RH WIND       PRES   REMARKS
CAPE GIRARDEAU FOG       42  41  96 CALM      30.29R VSB 1/4
6HR MIN TEMP:  42; 6HR MAX TEMP:  47;

FARMINGTON     CLEAR     43  39  87 CALM      30.30S
6HR MIN TEMP:  43; 6HR MAX TEMP:  48;

POPLAR BLUFF   CLEAR     46  42  86 N3        30.27R
6HR MIN TEMP:  45; 6HR MAX TEMP:  51;

WEST PLAINS    CLEAR     44  41  89 CALM      30.28S
6HR MIN TEMP:  42; 6HR MAX TEMP:  51;


$$



USA.gov is the U.S. government's official web portal to all federal, state and local government web resources and services.